Terminal Aerodrome Forecast
Issued by NWS El Paso, TX

Home | Current Version | Previous Version | Text Only | Print | Product List | Glossary On
Versions: 1 2 3 4 5 6 7 8 9 10 11 12 13 14 15
000
FTUS44 KEPZ 221100
TAFELP
TAF
KELP 221128Z 2212/2312 16006KT P6SM FEW100 SCT250
     FM222200 11010G20KT P6SM VCTS SCT080CB SCT150
     FM230700 05010KT P6SM FEW100 BKN250=

USA.gov is the U.S. government's official web portal to all federal, state and local government web resources and services.